Showing default

DROID.002, 63223

Orbit data source: Space-Track

DROID.002, 63223 is a payload satellite owned by Turion Space (US) in SSO that was launched on Sat, 15 Mar 2025 UTC via an FALCON 9 launch vehicle from the Air Force Western Test Range (AFWTR). Payload-class satellites include a variety of spacecraft equipped with specific instruments for various scientific and technological missions. These include communications satellites like Starlink; space stations such as the ISS; scientific satellites like the Hubble; Earth observation satellites from companies like Planet Labs, Umbra, and HawkEye 360; GPS; miniature CubeSats for education and research; and military/defense satellites.

Loading next visibility...
Identifier
63223, 2025-052P
Orbit
SSO
Last TLE update
7 hours ago
Origin
Manufacturer
Turion Space
Mission
Operational Commercial Technology
Bus & Motor
DROID, Unknown motor
Mass
90 kg wet, 90 kg dry
Launch date (UTC)
2025-03-15 (4 months ago)
Launch vehicle
FALCON 9
Launch site
Air Force Western Test Range (AFWTR)
Object type
Payload
Rocket body
Debris
Shape & HBR
Box + 2 Pan, 2 m
Radar Cross Section
0.892 m², Large (>1 m²)

Expand to show TLE details & history

TLE from 7 hours ago
0 DROID.002
1 63223U 25052P   25182.61474297  .00004123  00000-0  20104-3 0  9998
2 63223  97.4315  76.1016 0002771 293.6505  66.4438 15.18867132 16588
Epoch: 2025-07-01T14:45Z
TLE epoch observation values (Epoch: 2025-07-01T14:45:13.792Z)
Latitude
-0.00007°
Longitude
-65.11352°
Altitude
511.589 km
Speed
7.608 km/s
True Right ascension
05h 04m 24s
True Declination
0° 00' 00"
Sunlit
Object was in daylight at epoch
Visualization orbit readout
Latitude
-43.62366°
Longitude
108.08404°
Altitude
525.426 km
Speed
7.599 km/s
Apparent Right ascension
19h 08m 40s
Apparent Declination
-48° 36' 21"
Sunlit
Object is in full shadow
Visualization observer readout
Local Sidereal Time
09:44:01
Azimuth
120.564° SE
Elevation
-61.21°
Doppler factor
1
Orbital elements
Apogee altitude
508.139 km
Perigee altitude
504.324 km
Semi-major axis
6,884.369 km
Eccentricity
0.00028
Inclination
97.4315°
RAAN
76.1016°
Arg. of periapsis
293.6505°
True anomaly
Unknown
Mean anomaly
66.4438°
Eccentric anomaly
Unknown
Mean motion
3.79968 °/min
Orbital period
94.74 mins
BSTAR
0.00020104
Loading maneuver chart data...
Loading SW <> Apogee altitude chart data...
Loading historical data...
Loading historical data...
Loading historical data...
Loading historical data...
Loading historical data...
Loading historical data...
Loading historical data...

DROID.002 Visibility forecast

Observer location: undefined°, undefined°

Span
Click to sort rows by Start time (UTC) header in descending order
Start Az.
Max El. time (UTC)
Max El. Az.
Max El.
End time (UTC)
End Az.
6 mins2025-07-02 05:32:39.850Z21.613° NNE2025-07-02 05:35:39.850Z76.829° E39.253°2025-07-02 05:38:39.850Z176.097° S
4 mins2025-07-02 16:12:39.850Z107.263° ESE2025-07-02 16:14:39.850Z62.122° ENE21.096°2025-07-02 16:16:39.850Z23.965° NE
4 mins2025-07-02 17:46:39.850Z231.945° WSW2025-07-02 17:48:39.850Z275.987° WNW19.412°2025-07-02 17:50:39.850Z311.449° NW
|